Weather History for Pula, Croatia

Change the Weather History Date:

Saturday, November 23, 2013

  Actual Average Record
Temperature  
Mean Temperature 49 °F -  
Max Temperature 52 °F - - ()
Min Temperature 46 °F - - ()
Degree Days  
Heating Degree Days 16    
Moisture  
Dew Point 45 °F    
Average Humidity 85    
Maximum Humidity 93    
Minimum Humidity 74    
Precipitation  
Precipitation 0.31 in - - ()
Sea Level Pressure  
Sea Level Pressure 29.49 in    
Wind  
Wind Speed 14 mph ()    
Max Wind Speed 24 mph    
Max Gust Speed 32 mph    
Visibility 6.8 miles    
Events Rain , Thunderstorm    
T = Trace of Precipitation, MM = Missing Value Source: Averaged Metar Reports

Daily Weather History Graph

Daily Weather History Graph

Search for Another Location

Airport:

Trip Planner

Search our weather history database for the weather conditions in past years. The results will help you decide how hot, cold, wet, or windy it might be!

Date:

Astronomy

Nov. 23, 2013 Rise Set
Actual Time 7:12 AM CET 4:28 PM CET
Civil Twilight 6:39 AM CET 5:01 PM CET
Nautical Twilight 6:03 AM CET 5:37 PM CET
Astronomical Twilight 5:28 AM CET 6:12 PM CET
Moon 9:46 PM CET (11/23) 11:15 AM CET (11/23)
Length of Visible Light 10h 21m
Length of Day
9h 16m
Waning Gibbous, 72% of the Moon is Illuminated
Nov 23
Waning Gibbous
Nov 25
Last Quarter
Dec 3
New
Dec 9
First Quarter
Dec 17
Full

Hourly Weather History & Observations

Time (CET) Temp. Windchill Dew Point Humidity Pressure Visibility Wind Dir Wind Speed Gust Speed Precip Events Conditions
12:00 AM 48.2 °F - 44.6 °F 87% 29.50 in 6.2 mi ENE 15.0 mph - N/A Rain Rain
12:30 AM 48.2 °F - 44.6 °F 87% 29.50 in 6.2 mi ENE 17.3 mph - N/A Rain Rain
1:00 AM 47 °F - 44 °F 86% 29.50 in 6 mi NE 13.4 mph - - Rain Rain
1:00 AM 46.4 °F 40.4 °F 44.6 °F 93% 29.47 in 6.2 mi NE 13.8 mph - N/A Rain Rain
1:30 AM 46.4 °F 39.8 °F 44.6 °F 93% 29.47 in 6.2 mi ENE 16.1 mph - N/A Rain Light Rain
2:00 AM 48.2 °F - 42.8 °F 82% 29.44 in 6.2 mi ENE 24.2 mph - N/A Rain Light Rain
2:30 AM 48.2 °F - 44.6 °F 87% 29.44 in 6.2 mi ENE 20.7 mph - N/A Rain Light Rain
3:00 AM 48.2 °F - 44.6 °F 87% 29.44 in 6.2 mi ENE 18.4 mph - N/A Rain Light Rain
3:30 AM 48.2 °F - 44.6 °F 87% 29.44 in 6.2 mi ENE 16.1 mph - N/A Rain Rain
4:00 AM 48 °F - 45 °F 84% 29.46 in 6 mi ENE 15.7 mph - - Rain Rain
4:00 AM 48.2 °F - 44.6 °F 87% 29.44 in 6.2 mi ENE 17.3 mph - N/A Rain Rain
4:30 AM 48.2 °F - 44.6 °F 87% 29.44 in 6.2 mi ENE 23.0 mph - N/A Rain Light Rain
5:00 AM 49 °F - 45 °F 79% 29.44 in 9 mi ENE 17.9 mph - - Rain Light Rain
5:00 AM 48.2 °F - 44.6 °F 87% 29.42 in 6.2 mi ENE 17.3 mph 28.8 mph N/A Rain Light Rain
5:30 AM 48.2 °F - 44.6 °F 87% 29.42 in 6.2 mi ENE 16.1 mph - N/A Rain Light Rain
6:00 AM 48 °F - 44 °F 83% 29.45 in 7 mi ENE 17.9 mph - - Rain Light Rain
6:00 AM 48.2 °F - 44.6 °F 87% 29.42 in 6.2 mi ENE 17.3 mph - N/A Rain Light Rain
6:30 AM 48.2 °F - 44.6 °F 87% 29.42 in 6.2 mi ENE 17.3 mph - N/A Rain Light Rain
7:00 AM 49 °F - 45 °F 79% 29.45 in 9 mi ENE 20.1 mph - - Rain Light Rain
7:00 AM 50.0 °F - 44.6 °F 82% 29.44 in 6.2 mi ENE 19.6 mph 32.2 mph N/A Rain Light Rain
7:30 AM 48.2 °F - 44.6 °F 87% 29.44 in 6.2 mi ENE 21.9 mph - N/A Rain Rain
8:00 AM 48.2 °F - 44.6 °F 87% 29.44 in 6.2 mi East 17.3 mph - N/A Rain Rain
8:30 AM 50.0 °F - 44.6 °F 82% 29.44 in 6.2 mi ENE 19.6 mph - N/A Rain Light Rain
9:00 AM 50.0 °F - 44.6 °F 82% 29.44 in 6.2 mi East 19.6 mph - N/A Rain Light Rain
9:30 AM 51.8 °F - 44.6 °F 76% 29.44 in 6.2 mi East 18.4 mph - N/A   Mostly Cloudy
10:00 AM 51 °F - 45 °F 74% 29.47 in 9 mi ENE 15.7 mph - - Rain Light Rain
10:00 AM 51.8 °F - 44.6 °F 76% 29.44 in 6.2 mi ENE 16.1 mph - N/A Rain Light Rain
10:30 AM 51.8 °F - 44.6 °F 76% 29.44 in 6.2 mi East 19.6 mph 31.1 mph N/A Rain Light Rain
11:00 AM 51.8 °F - 46.4 °F 82% 29.44 in 6.2 mi East 19.6 mph - N/A Rain Light Rain
11:30 AM 50.0 °F - 46.4 °F 87% 29.44 in 6.2 mi East 18.4 mph - N/A Rain Rain
12:00 PM 50.0 °F - 46.4 °F 87% 29.47 in 6.2 mi East 18.4 mph - N/A Rain Light Rain
12:30 PM 50.0 °F - 46.4 °F 87% 29.47 in 6.2 mi East 17.3 mph - N/A Rain Light Rain
1:00 PM 50 °F - 46 °F 83% 29.49 in 9 mi ENE 17.9 mph - - Rain Light Rain
1:00 PM 50.0 °F - 46.4 °F 87% 29.47 in 6.2 mi ENE 17.3 mph - N/A Rain Light Rain
1:30 PM 50.0 °F - 46.4 °F 87% 29.47 in 6.2 mi East 17.3 mph - N/A   Mostly Cloudy
2:00 PM 51.8 °F - 46.4 °F 82% 29.47 in 6.2 mi East 17.3 mph - N/A   Mostly Cloudy
2:30 PM 51.8 °F - 46.4 °F 82% 29.47 in 6.2 mi ENE 18.4 mph - N/A   Mostly Cloudy
3:00 PM 50.0 °F - 46.4 °F 87% 29.50 in 6.2 mi Variable 4.6 mph - N/A Rain Light Rain
3:30 PM 50.0 °F - 46.4 °F 87% 29.50 in 6.2 mi NE 5.8 mph - N/A Rain Light Rain
4:00 PM 49 °F - 45 °F 83% 29.54 in 12 mi ENE 13.4 mph - - Rain Light Rain
4:00 PM 48.2 °F - 44.6 °F 87% 29.53 in 6.2 mi ENE 12.7 mph - N/A Rain Light Rain
4:30 PM 48.2 °F - 44.6 °F 87% 29.53 in 6.2 mi ENE 10.4 mph - N/A   Mostly Cloudy
5:00 PM 48.2 °F - 44.6 °F 87% 29.53 in 6.2 mi NE 5.8 mph - N/A   Mostly Cloudy
5:30 PM 48.2 °F - 42.8 °F 82% 29.53 in 6.2 mi NE 8.1 mph - N/A   Mostly Cloudy
6:00 PM 48.2 °F - 44.6 °F 87% 29.53 in 6.2 mi NE 10.4 mph - N/A   Scattered Clouds
6:30 PM 48.2 °F - 44.6 °F 87% 29.53 in 6.2 mi NE 9.2 mph - N/A   Scattered Clouds
7:00 PM 50 °F - 47 °F 86% 29.57 in 19 mi East 6.7 mph - -   Mostly Cloudy
7:00 PM 50.0 °F - 46.4 °F 87% 29.56 in 6.2 mi East 6.9 mph - N/A   Mostly Cloudy
7:30 PM 51.8 °F - 46.4 °F 82% 29.56 in 6.2 mi East 10.4 mph - N/A   Scattered Clouds
8:00 PM 50.0 °F - 44.6 °F 82% 29.56 in 6.2 mi East 6.9 mph - N/A   Partly Cloudy
8:30 PM 50.0 °F - 46.4 °F 87% 29.59 in 6.2 mi East 13.8 mph - N/A   Scattered Clouds
9:00 PM 50.0 °F - 44.6 °F 82% 29.59 in 6.2 mi East 4.6 mph - N/A   Scattered Clouds
9:30 PM 50.0 °F - 44.6 °F 82% 29.59 in 6.2 mi East 11.5 mph - N/A Rain , Thunderstorm Light Thunderstorms and Rain
10:00 PM 48 °F - 45 °F 84% 29.62 in 9 mi ENE 8.9 mph - - Rain , Thunderstorm Thunderstorms and Rain
10:00 PM 48.2 °F - 44.6 °F 87% 29.59 in 6.2 mi ENE 8.1 mph - N/A Rain , Thunderstorm Light Thunderstorms and Rain
10:30 PM 48.2 °F - 42.8 °F 82% 29.59 in 6.2 mi Variable 4.6 mph - N/A Thunderstorm Thunderstorm
11:00 PM 48.2 °F - 42.8 °F 82% 29.62 in 6.2 mi South 5.8 mph - N/A Rain , Thunderstorm Light Thunderstorms and Rain
11:30 PM 46.4 °F 44.3 °F 44.6 °F 93% 29.62 in 6.2 mi WSW 4.6 mph - N/A Rain , Thunderstorm Light Thunderstorms and Rain